Volver al catálogo

FENGYUN 1C DEB

ActivoPO
NORAD 30520·DEBRIS·🇨🇳 China

Lanzado May 10, 1999 desde Taiyuan Satellite Launch Center

Loading…

Próximos Pases (próximas 24 horas)

TLE

ActualizadoSource: Space-Track

Época: Sep 14, 2026, 13:55 UTC

1 30520U 99025AJJ 26257.58052095  .00015974  00000-0  59924-3 0  9999
2 30520  98.7027 118.2715 0052524 247.7381 111.8278 15.26033307 52331

Sigue FENGYUN 1C DEB en tiempo real con AllMySat

Download on the App Store